Location: Newark
(43.4306°N, 0.3089°E)
Time: 02:01:55
(UTC+00:00)

Vanguard 1 Rocket - Pass Details

Date: 31 August 2019
Orbit: 650 x 4226 km, 34.3° (Epoch: 17 October)

Event Time Altitude Azimuth Distance (km) Brightness Sun altitude
Exits shadow 04:18:22 14° 226° (SW) 1,960 8.5 -11.6°
Maximum altitude 04:20:34 18° 194° (SSW) 1,884 8.7 -11.2°
Drops below altitude 10° 04:24:41 10° 152° (SSE) 2,805 10.0 -10.6°
Sets 04:28:59 0° 136° (SE) 4,292 11.2 -9.8°
